{"data":{"norad_id":64899,"epoch":"2026-05-25T02:39:39.371040Z","epoch_age_seconds":61393,"freshness":"FRESH","line1":"1 64899U 25156A   26145.11087235  .00000406  00000+0  72063-4 0  9991","line2":"2 64899  97.9833 222.6600 0015990 351.0044   9.0875 14.72297332 44575","mean_motion":14.72297332,"eccentricity":0.001599,"inclination_deg":97.9833,"raan_deg":222.66,"arg_perigee_deg":351.0044,"mean_anomaly_deg":9.0875,"bstar":7.2063e-5,"rev_number":4457,"period_min":97.806330875019,"perigee_km":642.49967746445,"apogee_km":664.98763179796,"semimajor_km":7031.8806546312,"source":"CELESTRAK","updated_at":"2026-05-25T13:38:12.839377Z"}}